Regional Weather Roundup
Issued by NWS Charleston, SC

Current Version | Previous Version | Text Only | Print | Product List | Glossary Off
Versions: 1 2 3 4 5 6 7 8 9 10 11 12 13 14 15 16 17 18 19 20 21 22 23 24 25 26 27 28 29 30 31 32 33 34 35 36 37 38 39 40 41 42 43 44 45 46 47 48 49 50

847
ASUS42 KCHS 060012
RWRCHS

REGIONAL WEATHER ROUNDUP
NATIONAL WEATHER SERVICE CHARLESTON SC
700 PM EST MON DEC 05 2016

NOTE: "FAIR" INDICATES FEW OR NO CLOUDS BELOW 12,000 FEET WITH NO
SIGNIFICANT WEATHER AND/OR OBSTRUCTIONS TO VISIBILITY.

NOT ALL STATIONS ARE QUALITY CONTROLLED. USE DATA WITH CAUTION...
ESPECIALLY DEWPOINT OBSERVATIONS.

SCZ027-030-031-034>040-042>050-060100-
...SOUTHEAST SOUTH CAROLINA...

CITY           SKY/WX    TMP DP  RH WIND       PRES   REMARKS
N CHARLESTON   HVY RAIN  59  57  93 NE6       29.96R FOG
6HR MIN TEMP:  58; 6HR MAX TEMP:  62; 6HR PCP:  0.54;

WATERFRONT PRK   N/A     58  57  96 NE6       29.95R
MOUNT PLEASANT NOT AVBL
JOHNS ISLAND   DRIZZLE   59  57  94 NE7       29.96R
PINOPOLIS        N/A     57  55  94 NE7       29.90R
MONCKS CORNER  RAIN      55  54  94 N7        29.99R
SUMMERVILLE    RAIN     N/A N/A N/A N6        29.98R
BEAUFORT MCAS  LGT RAIN  58  57  97 NE9       29.96R
6HR MIN TEMP:  58; 6HR MAX TEMP:  61;

BEAUFORT ARPT  CLOUDY    59  59 100 NE8       29.95R FOG
HILTON HEAD IS CLOUDY    61  61 100 N8        29.96R FOG
WALTERBORO     RAIN      57 N/A N/A NE3       29.98S
ALLENDALE      CLOUDY    55  55 100 CALM      29.96S FOG

...SOUTHERN MIDLANDS AND PEE DEE...

CITY           SKY/WX    TMP DP  RH WIND       PRES   REMARKS
GEORGETOWN     NOT AVBL
KINGSTREE      RAIN      54  50  87 CALM      30.02R
ORANGEBURG     CLOUDY    54  52  93 NE9       29.97F
6HR MIN TEMP:  54; 6HR MAX TEMP:  60; 6HR PCP:  0.04;

BARNWELL       NOT AVBL
AIKEN          CLOUDY    52  50  93 NE5       30.00F
MANNING        RAIN      54  52  94 CALM      30.01R
COLUMBIA       CLOUDY    58  50  75 NE5       29.98F
6HR MIN TEMP:  56; 6HR MAX TEMP:  59;

SUMTER         LGT RAIN  55  51  86 CALM      30.00R
6HR MIN TEMP:  54; 6HR MAX TEMP:  60; 6HR PCP:  0.02;

FLORENCE       CLOUDY    57  50  77 NE3       30.03R
6HR MIN TEMP:  56; 6HR MAX TEMP:  63;

MYRTLE BEACH   CLOUDY    59  52  77 VRB6      30.02S
N MYRTLE BEACH MOCLDY    57  52  83 NE7       30.00F
6HR MIN TEMP:  57; 6HR MAX TEMP:  61;


$$

GAZ063-065-086>088-099>101-113>116-118-119-134>141-150-060100-
...SOUTHEAST GEORGIA...

CITY           SKY/WX    TMP DP  RH WIND       PRES   REMARKS
SAVANNAH ARPT  CLOUDY    60  57  89 NE8       29.95R FOG
6HR MIN TEMP:  60; 6HR MAX TEMP:  62; 6HR PCP:  0.09;

HUNTER AAF     CLOUDY    60  60 100 NE8       29.91R FOG
6HR MIN TEMP:  60; 6HR MAX TEMP:  62; 6HR PCP: TRACE;

FORT STEWART   NOT AVBL
STATESBORO     LGT RAIN  57  57 100 E3        29.95R
SYLVANIA       LGT RAIN N/A N/A N/A NE6       29.96R
CLAXTON        RAIN     N/A N/A N/A N5        29.94R

...CSRA...CENTRAL AND FAR SOUTHEAST GEORGIA...

CITY           SKY/WX    TMP DP  RH WIND       PRES   REMARKS
THOMSON        CLOUDY    55  55 100 CALM      29.99F
AUGUSTA-BUSH   CLOUDY    57  53  86 NE9       29.95F
6HR MIN TEMP:  55; 6HR MAX TEMP:  59; 6HR PCP:  0.01;

AUGUSTA-DANIEL LGT RAIN  56  51  84 NE8       29.96F
SWAINSBORO     RAIN      55  55 100 NE5       29.95R
VIDALIA        RAIN      59  59 100 NE7       29.94R
EASTMAN        RAIN      57  57 100 NE5       29.94S
HAZLEHURST     RAIN      60  60 100 E8        29.89F
ALMA           HVY RAIN  60  60 100 VRB5      29.88F FOG
6HR MIN TEMP:  59; 6HR MAX TEMP:  62; 6HR PCP:  0.16;

WAYCROSS       RAIN      67  67 100 E6        29.87F
JESUP          RAIN      64  64 100 E7        29.92R
BAXLEY         HVY RAIN  61  61 100 NE6       29.91R
BRUNSWICK      FOG       64  64 100 NE5       29.92R VSB 1
SAINT SIMONS   FOG       65  64  97 NE8       29.90R VSB 1
6HR MIN TEMP:  65; 6HR MAX TEMP:  77;


$$

SCZ027-028-034-036>038-045-046-048>050-GAZ119-141-060100-
...LAKE AND SUPPLEMENTAL COASTAL OBSERVATIONS...

STATION/POSITION TIME  TEMP    WIND        PRES    WAVE   SWELL
                       AIR SEA DIR/SP/G            HT/PER HT/PER/DIR
                 (UTC) (F)     (DEG/KT/KT) (MB)    (FT/S) (FT/S/D)
WINYAH BAY       2245   58      70/  9     1015.0
LAKE MURRAY      2320   57      70/  2/  4 1015.9
ACE BASIN NERRS  2245   58      50/  3     1013.0
FORT PULASKI     2342   60 62   70/ 13/ 15 1013.7F
SAPELO ISLAND    2300   63      50/  5     1012.0

$$

ANZ835-935-AMZ111-154-330-350-352-354-370-450-454-472-060100-
...C-MAN AND BUOY OBSERVATIONS...

STATION/POSITION TIME  TEMP    WIND        PRES    WAVE   SWELL
                       AIR SEA DIR/SP/G            HT/PER HT/PER/DIR
                 (UTC) (F)     (DEG/KT/KT) (MB)    (FT/S) (FT/S/D)
BUOY 41004       2350   67 73   50/ 16/ 17 1013.5F   4/ 6   2/110/ 9
BUOY 41008       2350   65 65   40/ 10/ 14 1012.7R   3/ 6   2/170/ 6
FOLLY BEACH CMAN 2300   59      60/ 15/ 17 1014.3F
CAPERS NEARSHORE 2308   59 62   60/ 16/ 19 1014.3S
FRIPP NEARSHORE  2308   60 62   70/ 12/ 16 1013.9R


STATION/POSITION TIME  TEMP    WIND        PRES    WAVE   SWELL
                       AIR SEA DIR/SP/G            HT/PER HT/PER/DIR
                 (UTC) (F)     (DEG/KT/KT) (MB)    (FT/S) (FT/S/D)
5E ST. MARYS GA  0000      66                N/A     2/ 5
FRYING PAN BUOY  2350   65 74   60/ 14/ 17 1015.8R   5/ 7   2/120/12
BUOY 41025       2350   57 71   20/ 17/ 21 1016.6R   5/ 8   2/160/ 8
CAPE LOOKOUT NC  2300   56      30/ 15/ 16 1016.4R
BUOY 41002       2350   73 74  190/ 17/ 21 1015.0F   6/ 6   2/ 20/10
BUOY 41010       NOT AVBL
ST AUGUSTINE FL  0000   70 68  170/  9/ 10 1012.8S


$$




USA.gov is the U.S. government's official web portal to all federal, state and local government web resources and services.